TimePDT,TemperatureF,Dew PointF,Humidity,Sea Level PressureIn,VisibilityMPH,Wind Direction,Wind SpeedMPH,Gust SpeedMPH,PrecipitationIn,Events,Conditions,WindDirDegrees,DateUTC
12:53 AM,64.0,48.0,56,30.12,10.0,NE,10.4,-,N/A,,Clear,40,2013-08-21 07:53:00
1:53 AM,62.1,46.9,58,30.11,10.0,NE,9.2,-,N/A,,Clear,40,2013-08-21 08:53:00
2:53 AM,61.0,48.0,62,30.11,10.0,NNE,10.4,-,N/A,,Clear,30,2013-08-21 09:53:00
3:53 AM,60.1,48.0,64,30.10,10.0,NNE,9.2,-,N/A,,Clear,30,2013-08-21 10:53:00
4:53 AM,60.1,48.0,64,30.10,10.0,NNE,11.5,-,N/A,,Clear,30,2013-08-21 11:53:00
5:53 AM,60.1,48.0,64,30.10,10.0,NE,9.2,-,N/A,,Partly Cloudy,40,2013-08-21 12:53:00
6:53 AM,60.1,48.0,64,30.11,10.0,NNE,11.5,-,N/A,,Partly Cloudy,30,2013-08-21 13:53:00
7:53 AM,62.1,48.9,62,30.11,10.0,NNE,10.4,-,N/A,,Partly Cloudy,20,2013-08-21 14:53:00
8:53 AM,64.9,50.0,58,30.12,10.0,North,9.2,-,N/A,,Partly Cloudy,10,2013-08-21 15:53:00
9:53 AM,69.1,50.0,51,30.11,10.0,North,10.4,-,N/A,,Partly Cloudy,10,2013-08-21 16:53:00
10:53 AM,73.0,50.0,44,30.10,10.0,North,8.1,-,N/A,,Partly Cloudy,10,2013-08-21 17:53:00
11:53 AM,75.9,51.1,42,30.09,10.0,North,9.2,-,N/A,,Partly Cloudy,10,2013-08-21 18:53:00
12:53 PM,77.0,50.0,39,30.07,10.0,North,10.4,-,N/A,,Partly Cloudy,360,2013-08-21 19:53:00
1:53 PM,80.1,50.0,35,30.05,10.0,North,10.4,-,N/A,,Partly Cloudy,360,2013-08-21 20:53:00
2:53 PM,82.0,50.0,33,30.04,10.0,North,12.7,19.6,0.00,,Scattered Clouds,360,2013-08-21 21:53:00
3:53 PM,82.0,51.1,34,30.01,10.0,NNW,11.5,-,N/A,,Scattered Clouds,340,2013-08-21 22:53:00
4:53 PM,82.0,52.0,35,29.99,10.0,North,10.4,-,N/A,,Scattered Clouds,350,2013-08-21 23:53:00
5:53 PM,79.0,52.0,39,29.99,10.0,NNW,10.4,-,N/A,,Scattered Clouds,340,2013-08-22 00:53:00
6:53 PM,77.0,51.1,40,29.98,10.0,North,11.5,-,N/A,,Scattered Clouds,350,2013-08-22 01:53:00
7:53 PM,75.0,52.0,44,29.98,10.0,North,6.9,-,N/A,,Scattered Clouds,350,2013-08-22 02:53:00
8:53 PM,71.1,51.1,49,29.98,10.0,North,9.2,-,N/A,,Scattered Clouds,360,2013-08-22 03:53:00
9:53 PM,69.1,51.1,53,29.99,10.0,North,8.1,-,N/A,,Scattered Clouds,360,2013-08-22 04:53:00
10:53 PM,72.0,52.0,49,29.99,10.0,NNE,9.2,-,N/A,,Scattered Clouds,30,2013-08-22 05:53:00
11:53 PM,70.0,50.0,49,29.97,10.0,NNE,8.1,-,N/A,,Partly Cloudy,20,2013-08-22 06:53:00